Location: Camaret
(48.2753°N, 4.5961°W)
Time: 03:24:16
(UTC+00:00)

Cosmos 1992 Rocket - Pass Details

Date: 29 October 2020
Orbit: 759 x 766 km, 74.0° (Epoch: 01 December)

Event Time Altitude Azimuth Distance (km) Brightness Sun altitude
Rises 19:12:54 0° 209° (SSW) 3,207 7.6 -22.0°
Reaches altitude 10° 19:15:17 10° 213° (SSW) 2,285 6.8 -22.4°
Maximum altitude 19:20:26 66° 295° (WNW) 830 4.3 -23.2°
Enters shadow 19:25:32 11° 18° (NNE) 2,267 6.3 -24.1°
